Northeastern University MA US WEATHERSTEM current weather conditions

sailwx.info

Wind from 359 at 3 knots gusting 8

Air temperature 3.3° C
Dewpoint -2.0° C

Last reported at 2019-Dec-11 19:50 UTC.
Time now 2019-Dec-11 20:29 UTC

Location: N 42°20' W 071°05'.
View on Google Maps.

See reports from other nearby stations

  
Tides and Currents Weather Stations Pressure Air Temp Water Temp Dewpoint Dewpoint Depression Visibility Wind Speed Wind Dir Waves Ship Positions
date/time (UTC)wind fromknots sea level pressurealtimeterstation pressurevisibilityair tempwater tempwave heightnotes
2019-Dec-11 20:00 359 1 gusting 8 3.6
2019-Dec-11 19:50 359 3 gusting 8 3.3
2019-Dec-11 19:40 359 2 gusting 9 3.3
2019-Dec-11 19:30 359 5 gusting 6 3.0
2019-Dec-11 19:20 359 1 gusting 6 2.7
2019-Dec-11 19:10 359 0 gusting 5 2.6
2019-Dec-11 19:00 359 1 gusting 6 2.6
2019-Dec-11 18:50 359 1 gusting 7 2.9
2019-Dec-11 18:40 359 4 gusting 6 2.9
2019-Dec-11 18:30 359 3 gusting 8 1.8
2019-Dec-11 18:20 359 4 gusting 8 1.8
2019-Dec-11 18:10 359 2 gusting 7 2.3
2019-Dec-11 18:00 359 1 gusting 6 2.7
2019-Dec-11 17:50 359 0 gusting 7 2.0
2019-Dec-11 17:40 359 1 gusting 7 2.4
2019-Dec-11 17:30 359 3 gusting 7 2.0
2019-Dec-11 17:20 359 3 gusting 8 2.2
2019-Dec-11 17:10 359 0 gusting 4 2.2
2019-Dec-11 17:00 359 0 gusting 5 2.2
2019-Dec-11 16:50 359 1 gusting 4 1.6
2019-Dec-11 16:40 359 1 gusting 3 1.8
2019-Dec-11 16:30 359 0 gusting 4 1.6
2019-Dec-11 16:20 359 0 gusting 3 0.3
2019-Dec-11 16:10 359 2 gusting 4 0.4
2019-Dec-11 16:00 359 0 gusting 4 0.2
2019-Dec-11 15:50 359 6 gusting 11 -0.1
2019-Dec-11 15:40 359 1 gusting 9 0.2
2019-Dec-11 15:30 359 2 gusting 6 0.6
2019-Dec-11 15:20 359 3 gusting 8 1.1
2019-Dec-11 15:00 359 1 gusting 4 1.1
2019-Dec-11 14:50 359 2 gusting 3 1.3
2019-Dec-11 14:40 359 1 gusting 3 0.9
2019-Dec-11 14:30 359 0 gusting 2 0.5
2019-Dec-11 14:20 359 1 gusting 5 0.2
2019-Dec-11 14:10 359 0 gusting 4 0.5
2019-Dec-11 14:00 359 1 gusting 3 0.7
2019-Dec-11 13:50 359 1 gusting 4 0.5
2019-Dec-11 13:40 359 2 gusting 4 0.2
2019-Dec-11 13:20 359 2 gusting 5 -0.2
2019-Dec-11 13:10 359 1 gusting 4 -0.1
2019-Dec-11 13:00 359 2 gusting 4 0.1
2019-Dec-11 12:50 359 2 gusting 6 -0.4
2019-Dec-11 12:40 359 2 gusting 5 -0.3
2019-Dec-11 12:30 359 0 gusting 3 0.1
2019-Dec-11 12:20 359 0 gusting 4 0.1
2019-Dec-11 12:10 359 4 gusting 5 -0.1
2019-Dec-11 12:00 359 4 gusting 7 -0.4
2019-Dec-11 11:50 359 2 gusting 11 -0.6
2019-Dec-11 11:40 359 7 gusting 13 -0.6
2019-Dec-11 11:30 359 11 gusting 14 -0.2
2019-Dec-11 11:20 359 11 gusting 13 0.1
2019-Dec-11 11:10 359 2 gusting 13 0.1
2019-Dec-11 11:00 359 3 gusting 8 -0.2
2019-Dec-11 10:50 359 8 gusting 8 0.2
2019-Dec-11 10:40 359 8 gusting 10 -0.1
2019-Dec-11 10:30 359 5 gusting 10 -0.2
2019-Dec-11 10:20 359 5 gusting 13 -0.2
2019-Dec-11 10:10 359 8 gusting 14 -0.1
2019-Dec-11 10:00 359 12 gusting 14 -0.1
2019-Dec-11 09:50 359 12 gusting 18 -0.1
2019-Dec-11 09:40 359 4 gusting 12 0.1
2019-Dec-11 09:30 359 8 gusting 13 0.4
2019-Dec-11 09:20 359 4 gusting 11 0.4
2019-Dec-11 09:10 359 6 gusting 14 -0.1
2019-Dec-11 09:00 359 6 gusting 19 -0.1
2019-Dec-11 08:50 359 11 gusting 19 -0.0
2019-Dec-11 08:40 359 12 gusting 19 0.2
2019-Dec-11 08:30 359 8 gusting 22 0.4
2019-Dec-11 08:20 359 14 gusting 20 1.1
2019-Dec-11 08:10 359 7 gusting 20 1.2
2019-Dec-11 08:00 359 6 gusting 12 1.4
2019-Dec-11 07:50 359 6 gusting 13 1.4
2019-Dec-11 07:40 359 7 gusting 16 1.5
2019-Dec-11 07:30 359 9 gusting 19 1.9
2019-Dec-11 07:20 359 17 gusting 17 2.6
2019-Dec-11 07:10 359 8 gusting 16 3.0
2019-Dec-11 07:00 359 5 gusting 9 3.4
2019-Dec-11 06:50 359 7 gusting 12 3.5
2019-Dec-11 06:40 359 5 gusting 12 3.8
2019-Dec-11 06:30 359 5 gusting 8 4.4
2019-Dec-11 06:20 359 5 gusting 13 4.7
2019-Dec-11 06:10 359 6 gusting 13 4.0
2019-Dec-11 06:00 359 9 gusting 10 4.1
2019-Dec-11 05:50 359 4 gusting 13 4.2
2019-Dec-11 05:40 359 4 gusting 14 4.2
2019-Dec-11 05:30 359 7 gusting 13 4.5
2019-Dec-11 05:20 359 5 gusting 16 5.1
2019-Dec-11 05:10 359 5 gusting 17 4.8
2019-Dec-11 05:00 359 9 gusting 13 4.9
2019-Dec-11 04:50 359 5 gusting 14 5.1
2019-Dec-11 04:40 359 9 gusting 11 5.3
2019-Dec-11 04:30 359 3 gusting 13 5.6
2019-Dec-11 04:20 359 7 gusting 11 6.4
2019-Dec-11 04:10 359 9 gusting 12 6.3
2019-Dec-11 04:00 359 7 gusting 14 5.9
2019-Dec-11 03:50 359 7 gusting 17 6.1
2019-Dec-11 03:40 359 6 gusting 16 6.4
2019-Dec-11 03:30 359 7 gusting 17 6.7
2019-Dec-11 03:20 359 8 gusting 17 7.3
2019-Dec-11 03:10 359 10 gusting 14 7.4
2019-Dec-11 03:00 359 13 gusting 19 7.0
2019-Dec-11 02:50 359 10 gusting 16 7.2
2019-Dec-11 02:40 359 3 gusting 18 7.4
2019-Dec-11 02:30 359 9 gusting 16 7.7
2019-Dec-11 02:20 359 8 gusting 14 8.1
2019-Dec-11 02:10 359 3 gusting 17 8.6
2019-Dec-11 02:00 359 6 gusting 16 8.3
2019-Dec-11 01:50 359 4 gusting 14 8.4
2019-Dec-11 01:40 359 5 gusting 16 8.6
2019-Dec-11 01:30 359 7 gusting 16 8.8
2019-Dec-11 01:20 359 7 gusting 18 9.2
2019-Dec-11 01:10 359 13 gusting 16 9.9
2019-Dec-11 01:00 359 12 gusting 16 9.8
2019-Dec-11 00:50 359 11 gusting 19 9.8
2019-Dec-11 00:40 359 12 gusting 22 10.0
2019-Dec-11 00:30 359 12 gusting 23 10.6
2019-Dec-11 00:20 359 13 gusting 28 11.3
2019-Dec-11 00:10 359 12 gusting 24 12.9
2019-Dec-11 00:00 359 4 gusting 6 13.3
2019-Dec-10 23:50 359 6 gusting 8 13.3
2019-Dec-10 23:40 359 0 gusting 8 13.2
2019-Dec-10 23:30 359 5 gusting 8 13.3
2019-Dec-10 23:20 359 4 gusting 10 13.5
2019-Dec-10 23:10 359 3 gusting 10 13.8
2019-Dec-10 23:00 359 5 gusting 14 14.1
2019-Dec-10 22:50 359 9 gusting 15 14.2
2019-Dec-10 22:40 359 1 gusting 14 14.3
2019-Dec-10 22:30 359 10 gusting 12 14.3
2019-Dec-10 22:20 359 9 gusting 14 14.3
2019-Dec-10 22:10 359 6 gusting 15 14.3
2019-Dec-10 22:00 359 7 gusting 13 14.3
2019-Dec-10 21:50 359 4 gusting 14 14.4
2019-Dec-10 21:40 359 8 gusting 13 14.6
2019-Dec-10 21:30 359 0 gusting 14 14.6
2019-Dec-10 21:20 359 8 gusting 15 14.4
2019-Dec-10 21:10 359 2 gusting 13 14.5
2019-Dec-10 21:00 359 4 gusting 14 14.6
2019-Dec-10 20:50 359 5 gusting 13 14.7
2019-Dec-10 20:40 359 2 gusting 12 14.7
2019-Dec-10 20:30 359 4 gusting 12 14.6
2019-Dec-10 20:20 359 3 gusting 15 14.6
2019-Dec-10 20:10 359 2 gusting 13 14.6
2019-Dec-10 20:00 359 10 gusting 13 14.5
2019-Dec-10 19:50 359 8 gusting 16 14.6
2019-Dec-10 19:40 359 7 gusting 11 14.8
2019-Dec-10 19:30 359 9 gusting 14 15.1
2019-Dec-10 19:20 359 6 gusting 13 15.4
2019-Dec-10 19:10 359 6 gusting 12 15.7
2019-Dec-10 19:00 359 5 gusting 15 15.7
2019-Dec-10 18:50 359 3 gusting 15 15.8
2019-Dec-10 18:40 359 2 gusting 10 15.8
2019-Dec-10 18:30 359 3 gusting 9 16.0
2019-Dec-10 18:20 359 2 gusting 10 16.2
2019-Dec-10 18:10 359 2 gusting 9 16.4
2019-Dec-10 18:00 359 1 gusting 8 16.4
2019-Dec-10 17:50 359 1 gusting 10 16.6
2019-Dec-10 17:40 359 5 gusting 10 16.6
2019-Dec-10 17:30 359 0 gusting 18 16.6
2019-Dec-10 17:20 359 11 gusting 11 16.8
2019-Dec-10 17:10 359 3 gusting 19 17.0
2019-Dec-10 17:00 056 5 gusting 13 17.1
2019-Dec-10 16:50 359 3 gusting 19 16.8
2019-Dec-10 16:40 359 7 gusting 17 17.0
2019-Dec-10 16:30 359 4 gusting 13 17.1
2019-Dec-10 16:20 359 11 gusting 13 17.2
2019-Dec-10 16:10 359 10 gusting 13 17.1
2019-Dec-10 16:00 359 6 gusting 14 17.0
2019-Dec-10 15:50 359 4 gusting 11 16.8
2019-Dec-10 15:40 359 9 gusting 15 16.6
2019-Dec-10 15:30 359 7 gusting 15 16.4
2019-Dec-10 15:20 359 4 gusting 15 16.3
2019-Dec-10 15:10 359 7 gusting 16 16.3
2019-Dec-10 15:00 359 7 gusting 14 16.4
2019-Dec-10 14:50 359 10 gusting 14 16.4
2019-Dec-10 14:40 359 8 gusting 13 16.4
2019-Dec-10 14:30 359 5 gusting 17 16.2
2019-Dec-10 14:20 359 12 gusting 17 16.1
2019-Dec-10 14:10 359 4 gusting 17 15.9
2019-Dec-10 14:00 359 9 gusting 16 15.8
2019-Dec-10 13:50 359 7 gusting 17 15.4
2019-Dec-10 13:40 359 4 gusting 14 15.2
2019-Dec-10 13:30 359 7 gusting 17 15.2
2019-Dec-10 13:20 359 9 gusting 16 15.2
2019-Dec-10 13:10 359 11 gusting 15 15.3
2019-Dec-10 13:00 359 5 gusting 11 15.2
2019-Dec-10 12:50 359 3 gusting 13 15.1
2019-Dec-10 12:40 359 12 gusting 13 15.1
2019-Dec-10 12:30 359 2 gusting 14 15.1
2019-Dec-10 12:10 359 8 gusting 13 15.1
2019-Dec-10 11:50 359 4 gusting 19 14.9
2019-Dec-10 11:40 359 9 gusting 14 14.9
2019-Dec-10 11:30 359 4 gusting 17 14.8
2019-Dec-10 11:20 359 8 gusting 13 14.8
2019-Dec-10 11:10 359 7 gusting 19 14.6
2019-Dec-10 11:00 359 11 gusting 15 14.3
2019-Dec-10 10:50 359 10 gusting 13 14.3
2019-Dec-10 10:40 359 9 gusting 18 14.2
2019-Dec-10 10:30 359 7 gusting 16 14.2
2019-Dec-10 10:20 359 9 gusting 16 14.2
2019-Dec-10 10:10 359 9 gusting 16 14.2
2019-Dec-10 10:00 359 2 gusting 13 14.2
2019-Dec-10 09:50 359 7 gusting 16 14.2
2019-Dec-10 09:40 359 2 gusting 19 14.2
2019-Dec-10 09:30 359 10 gusting 16 14.2
2019-Dec-10 09:20 359 7 gusting 15 14.3
2019-Dec-10 09:10 359 4 gusting 20 14.3
2019-Dec-10 09:00 359 8 gusting 15 14.3
2019-Dec-10 08:50 359 9 gusting 15 14.3
2019-Dec-10 08:40 359 5 gusting 18 14.3
2019-Dec-10 08:30 359 8 gusting 15 14.3
2019-Dec-10 08:20 359 13 gusting 16 14.3
2019-Dec-10 08:10 359 6 gusting 17 14.4
2019-Dec-10 08:00 359 4 gusting 20 14.4
2019-Dec-10 07:50 359 9 gusting 17 14.4
2019-Dec-10 07:40 359 10 gusting 18 14.4
2019-Dec-10 07:30 359 8 gusting 18 14.4
2019-Dec-10 07:20 359 5 gusting 17 14.4
2019-Dec-10 07:10 359 6 gusting 20 14.6
2019-Dec-10 07:00 359 15 gusting 15 14.6
2019-Dec-10 06:50 359 15 gusting 19 14.7
2019-Dec-10 06:40 359 12 gusting 18 14.7
2019-Dec-10 06:30 359 6 gusting 18 14.8
2019-Dec-10 06:20 359 8 gusting 17 14.9
2019-Dec-10 06:10 359 9 gusting 19 15.0
2019-Dec-10 06:00 359 8 gusting 23 15.1
2019-Dec-10 05:50 359 5 gusting 18 15.1
2019-Dec-10 05:40 359 6 gusting 16 15.2
2019-Dec-10 05:30 359 12 gusting 18 15.2
2019-Dec-10 05:20 359 3 gusting 18 15.3
2019-Dec-10 05:10 359 7 gusting 19 15.3
2019-Dec-10 05:00 359 8 gusting 19 15.4
2019-Dec-10 04:50 359 13 gusting 20 15.4
2019-Dec-10 04:40 359 11 gusting 28 15.5
2019-Dec-10 04:30 359 7 gusting 25 15.6
2019-Dec-10 04:20 359 11 gusting 23 15.6
2019-Dec-10 04:10 359 10 gusting 19 15.5
2019-Dec-10 04:00 359 20 gusting 23 15.3
2019-Dec-10 03:50 359 13 gusting 20 15.2
2019-Dec-10 03:40 359 13 gusting 23 15.2
2019-Dec-10 03:30 359 13 gusting 24 15.1
2019-Dec-10 03:20 359 11 gusting 21 14.9
2019-Dec-10 03:10 359 10 gusting 24 14.8
2019-Dec-10 03:00 359 8 gusting 19 14.8
2019-Dec-10 02:50 359 11 gusting 17 14.6
2019-Dec-10 02:40 359 11 gusting 18 14.5
2019-Dec-10 02:30 359 11 gusting 19 14.4
2019-Dec-10 02:20 359 5 gusting 17 14.3
2019-Dec-10 02:10 359 2 gusting 15 14.3
2019-Dec-10 02:00 359 5 gusting 15 14.2
2019-Dec-10 01:50 359 7 gusting 15 14.2
2019-Dec-10 01:40 359 6 gusting 14 14.1
2019-Dec-10 01:30 359 8 gusting 15 14.1
2019-Dec-10 01:20 359 6 gusting 15 14.1
2019-Dec-10 01:10 359 10 gusting 18 13.9
2019-Dec-10 01:00 359 9 gusting 12 13.8
2019-Dec-10 00:50 359 5 gusting 15 13.8
2019-Dec-10 00:40 359 9 gusting 18 13.8
2019-Dec-10 00:30 359 13 gusting 14 13.7
2019-Dec-10 00:20 359 10 gusting 15 13.7
2019-Dec-10 00:10 359 9 gusting 15 13.6
2019-Dec-10 00:00 359 6 gusting 14 13.6
2019-Dec-09 23:50 359 8 gusting 16 13.6
2019-Dec-09 23:40 359 9 gusting 13 13.7
2019-Dec-09 23:30 359 6 gusting 14 13.7
2019-Dec-09 23:20 359 5 gusting 18 13.8
2019-Dec-09 23:10 359 4 gusting 18 14.0
2019-Dec-09 23:00 359 9 gusting 14 14.2
2019-Dec-09 22:50 359 4 gusting 15 14.2
2019-Dec-09 22:40 359 14 gusting 16 14.2
2019-Dec-09 22:30 359 6 gusting 14 14.2
2019-Dec-09 22:20 359 3 gusting 15 14.2
2019-Dec-09 22:10 359 10 gusting 18 14.2
2019-Dec-09 22:00 359 8 gusting 17 14.2
2019-Dec-09 21:50 359 8 gusting 22 14.2
2019-Dec-09 21:40 359 6 gusting 22 14.2
2019-Dec-09 21:30 359 12 gusting 23 14.2
2019-Dec-09 21:20 359 9 gusting 23 14.2
2019-Dec-09 21:10 359 9 gusting 23 14.2
2019-Dec-09 21:00 359 6 gusting 23 14.2
2019-Dec-09 20:50 359 13 gusting 30 14.3
2019-Dec-09 20:40 359 13 gusting 27 14.2
2019-Dec-09 20:30 359 13 gusting 32 14.1
2019-Dec-09 20:20 359 13 gusting 29 14.1
2019-Dec-09 20:10 359 13 gusting 27 14.0
2019-Dec-09 20:00 359 6 gusting 27 13.9